This demonstration page uses our WeatherBlox Daily Observations layout. Learn more.

Left ArrowRight Arrow

36.17497, -115.13722

Hourly Observations for February 10, 2019

Temp ( °F °C ) Dew Point ( °F °C ) Humidity (%) Winds ( mph kmh ) Pressure ( in mb ) Visibility ( mi km ) Precip ( " mm )
12:53 am 00:53 Clear 47 8.3 29 -1.7 50 50 S 16 26 29.93 1014 10 16 0.00 0.00
1:53 am 01:53 Clear 46 7.8 30 -1.1 54 54 SSW 18 30 29.92 1013 10 16 0.00 0.00
2:53 am 02:53 Clear 47 8.3 29 -1.7 50 50 SSW 21 33 29.90 1012 10 16 0.00 0.00
3:53 am 03:53 Clear 47 8.3 28 -2.2 48 48 SW 21 33 29.89 1012 10 16 0.00 0.00
4:53 am 04:53 Clear 46 7.8 27 -2.8 47 47 SSW 15 24 29.89 1012 10 16 0.00 0.00
5:53 am 05:53 Clear 46 7.8 27 -2.8 47 47 S 21 33 29.88 1012 10 16 0.00 0.00
6:53 am 06:53 Sunny 46 7.8 27 -2.8 47 47 SSW 14 22 29.90 1013 10 16 0.00 0.00
7:53 am 07:53 Sunny 46 7.8 27 -2.8 47 47 S 9 15 29.91 1013 10 16 0.00 0.00
8:53 am 08:53 Sunny 50 10 26 -3.3 39 39 SSW 20 31 29.89 1012 10 16 0.00 0.00
9:53 am 09:53 Sunny 52 11.1 25 -3.9 35 35 SSW 21 33 29.86 1011 10 16 0.00 0.00
10:53 am 10:53 Sunny 55 12.8 23 -5 29 29 SSW 18 30 29.84 1010 10 16 0.00 0.00
11:53 am 11:53 Sunny 56 13.3 24 -4.4 29 29 SW 22 35 29.82 1010 10 16 0.00 0.00
12:53 pm 12:53 Partly Cloudy 56 13.3 25 -3.9 30 30 SSW 21 33 29.78 1009 10 16 0.00 0.00
1:53 pm 13:53 Cloudy 57 13.9 26 -3.3 30 30 WSW 15 24 29.77 1008 10 16 0.00 0.00
2:53 pm 14:53 Mostly Cloudy 56 13.3 27 -2.8 33 33 SW 21 33 29.74 1007 10 16 0.00 0.00
3:53 pm 15:53 Cloudy 53 11.7 31 -0.6 43 43 SW 18 30 29.73 1007 10 16 0.00 0.03
4:53 pm 16:53 Cloudy 49 9.4 36 2.2 61 61 SW 20 31 29.77 1008 10 16 0.00 0.03
5:53 pm 17:53 Cloudy with Light Rain 47 8.3 35 1.7 63 63 WSW 15 24 29.78 1008 10 16 0.00 0.03
6:53 pm 18:53 Cloudy 43 6.1 29 -1.7 58 58 NNW 30 48 29.84 1011 10 16 0.00 0.03
7:00 pm 19:00 Cloudy with Light Rain 42 5.6 30 -1.1 62 62 NNW 35 56 29.82 1010 10 16 0.00 0.03
7:53 pm 19:53 Windy with Snow Likely 36 2.2 31 -0.6 82 82 NNW 24 39 29.93 1014 8 13 0.00 0.03
8:53 pm 20:53 Cloudy 37 2.8 27 -2.8 67 67 N 14 22 29.94 1014 10 16 0.00 0.03
9:53 pm 21:53 Mostly Clear 37 2.8 25 -3.9 62 62 NNE 8 13 29.98 1015 10 16 0.00 0.00
10:53 pm 22:53 Clear 38 3.3 22 -5.6 52 52 N 7 11 30.00 1016 10 16 0.00 0.00
11:53 pm 23:53 Clear 38 3.3 19 -7.2 46 46 NNW 13 20 30.04 1017 10 16 0.00 0.00

Powered by AerisWeather